User: anonymous   Login
Location: Unspecified
(0.0000°N, 0.0000°E)
Time: 19:05:24
(UTC+00:00)
Language:

YUBILEINY - Orbit

View from above orbital plane
View from above orbital plane
View from above satellite
View from above satellite

Ground track
Ground track

The orbit data is extracted from the following two-line orbital elements,

1 32953U 08025A   19343.48973361  .00000021  00000-0  75656-4 0  9994
2 32953  82.5061  36.6772 0020312 110.3031 250.0231 12.43092677523907
Epoch (UTC): 09 December 2019 11:45:12
Eccentricity: 0.0020312
inclination: 82.5061°
perigee height: 1477 km
apogee height: 1509 km
right ascension of ascending node: 36.6772°
argument of perigee: 110.3031°
revolutions per day: 12.43092677
mean anomaly at epoch: 250.0231°
orbit number at epoch: 52390

The dashed part of the orbit path shows where the satellite is in the earth's shadow,  

DLR